Overview Statistics Trail Chart Weather Telemetry Raw packets
 

This is the latest recevied weather packets stored in our database for station/object KB9YVI-11. If no packets are shown the sender has not sent any weather packets the latest 10 day(s).

<< 18 19 20 21 22 23 24 >>
Time Temp. Humidity Pressure Rain* Wind** Luminosity Snow
1788449210 31.11° C 92% 0 hPa 0 mm - - -
1788448909 31.11° C 92% 0 hPa 0 mm - - -
1788448610 31.11° C 93% 0 hPa 0 mm - - -
1788448310 30.56° C 93% 0 hPa 0 mm - - -
1788448010 30.56° C 79% 0 hPa 0 mm - - -
1788447410 30° C 95% 0 hPa 0 mm - - -
1788446210 30° C 95% 0 hPa 0 mm - - -
1788445910 29.44° C 96% 0 hPa 0 mm - - -
1788445617 29.44° C 95% 0 hPa 0 mm - - -
1788445309 29.44° C 95% 0 hPa 0 mm - - -
1788445010 29.44° C 96% 0 hPa 0 mm - - -
1788443810 27.78° C 100% 0 hPa 0 mm - - -
1788443511 27.22° C 100% 0 hPa 0 mm - - -
1788443210 26.67° C 100% 0 hPa 0 mm - - -
1788442911 26.67° C 100% 0 hPa 0 mm - - -
1788442611 26.11° C 100% 0 hPa 0 mm - - -
1788442311 25.56° C 100% 0 hPa 0 mm - - -
1788441709 25° C 100% 0 hPa 0 mm - - -
1788441411 24.44° C 100% 0 hPa 0 mm - - -
1788440211 23.89° C 100% 0 hPa 0 mm - - -
1788439611 23.89° C 100% 0 hPa 0 mm - - -
1788439311 23.33° C 100% 0 hPa 0 mm - - -
1788439011 23.33° C 100% 0 hPa 0 mm - - -
1788438110 22.78° C 100% 0 hPa 0 mm - - -
1788437211 22.22° C 100% 0 hPa 0 mm - - -

* Rain latest hour (hover to see other rain measurements)
** Current wind speed in m/s (hover to see current wind gust speed)